| time (UTC) | temp C | wind direction | speed KPH | gust KPH | rain 1hr cm | rain 24hr cm | rain mn cm | humidity % | barometer mb |
| 20260510105108 | 21 | 64 | 0.0 | 6.4 | 0.00 | 0.00 | 0.00 | 86 | 1009.1 |
| 20260510104605 | 21 | 53 | 0.0 | 6.4 | 0.00 | 0.00 | 0.00 | 86 | 1009.1 |
| 20260510104104 | 21 | 53 | 1.6 | 6.4 | 0.00 | 0.00 | 0.00 | 86 | 1008.8 |
| 20260510103557 | 21 | 53 | 3.2 | 8.0 | 0.00 | 0.00 | 0.00 | 86 | 1008.8 |
| 20260510103051 | 21 | 55 | 4.8 | 9.7 | 0.00 | 0.00 | 0.00 | 86 | 1008.8 |
| 20260510102804 | 21 | 46 | 4.8 | 9.7 | 0.00 | 0.00 | 0.00 | 85 | 1008.8 |
| 20260510102027 | 20 | 52 | 4.8 | 8.0 | 0.00 | 0.00 | 0.00 | 85 | 1008.8 |
| 20260510101522 | 21 | 53 | 1.6 | 8.0 | 0.00 | 0.00 | 0.00 | 85 | 1008.8 |
| 20260510101011 | 21 | 47 | 0.0 | 4.8 | 0.00 | 0.00 | 0.00 | 85 | 1008.7 |
| 20260510100732 | 21 | 26 | 3.2 | 9.7 | 0.00 | 0.00 | 0.00 | 85 | 1008.7 |
| 20260510095958 | 21 | 24 | 4.8 | 9.7 | 0.00 | 0.00 | 0.00 | 85 | 1008.7 |
| 20260510095456 | 21 | 36 | 1.6 | 9.7 | 0.00 | 0.00 | 0.00 | 85 | 1008.8 |
| 20260510094954 | 21 | 85 | 0.0 | 0.0 | 0.00 | 0.00 | 0.00 | 85 | 1008.8 |
| 20260510094719 | 21 | 85 | 0.0 | 0.0 | 0.00 | 0.00 | 0.00 | 85 | 1008.8 |
| 20260510093954 | 21 | 85 | 0.0 | 4.8 | 0.00 | 0.00 | 0.00 | 85 | 1008.8 |
| 20260510093450 | 21 | 85 | 0.0 | 4.8 | 0.00 | 0.00 | 0.00 | 85 | 1008.8 |
| 20260510092950 | 21 | 85 | 1.6 | 4.8 | 0.00 | 0.00 | 0.00 | 85 | 1008.8 |
| 20260510092451 | 21 | 85 | 3.2 | 6.4 | 0.00 | 0.00 | 0.00 | 85 | 1008.9 |
| 20260510091950 | 21 | 85 | 1.6 | 6.4 | 0.00 | 0.00 | 0.00 | 85 | 1008.9 |
| 20260510091451 | 21 | 141 | 1.6 | 6.4 | 0.00 | 0.00 | 0.00 | 85 | 1008.9 |
| 20260510090945 | 21 | 141 | 3.2 | 6.4 | 0.00 | 0.00 | 0.00 | 85 | 1008.9 |
| 20260510090439 | 21 | 146 | 3.2 | 6.4 | 0.00 | 0.00 | 0.00 | 85 | 1008.9 |
| 20260510085934 | 21 | 128 | 4.8 | 8.0 | 0.00 | 0.00 | 0.00 | 84 | 1008.9 |
| 20260510085648 | 21 | 132 | 4.8 | 9.7 | 0.00 | 0.00 | 0.00 | 84 | 1008.9 |
| 20260510084914 | 21 | 130 | 4.8 | 11.3 | 0.00 | 0.00 | 0.00 | 84 | 1008.9 |
| 20260510084359 | 21 | 147 | 4.8 | 11.3 | 0.00 | 0.00 | 0.00 | 84 | 1009.1 |
| 20260510083847 | 21 | 136 | 4.8 | 9.7 | 0.00 | 0.00 | 0.00 | 84 | 1009.1 |
| 20260510083331 | 21 | 138 | 4.8 | 9.7 | 0.00 | 0.00 | 0.00 | 84 | 1009.1 |
| 20260510082820 | 21 | 141 | 4.8 | 9.7 | 0.00 | 0.00 | 0.00 | 84 | 1009.2 |
| 20260510082307 | 21 | 134 | 6.4 | 9.7 | 0.00 | 0.00 | 0.00 | 84 | 1009.2 |
| 20260510081751 | 21 | 124 | 6.4 | 8.0 | 0.00 | 0.00 | 0.00 | 84 | 1009.2 |
| 20260510081242 | 21 | 119 | 4.8 | 8.0 | 0.00 | 0.00 | 0.00 | 84 | 1009.2 |
| 20260510080743 | 21 | 127 | 4.8 | 8.0 | 0.00 | 0.00 | 0.00 | 84 | 1009.2 |
| 20260510080243 | 21 | 132 | 4.8 | 8.0 | 0.00 | 0.00 | 0.00 | 84 | 1009.2 |
| 20260510075743 | 21 | 122 | 4.8 | 8.0 | 0.00 | 0.00 | 0.00 | 84 | 1009.1 |
| 20260510075244 | 21 | 117 | 4.8 | 8.0 | 0.00 | 0.00 | 0.00 | 84 | 1009.1 |
| 20260510074744 | 21 | 132 | 3.2 | 8.0 | 0.00 | 0.00 | 0.00 | 83 | 1009.1 |
| 20260510074505 | 21 | 136 | 4.8 | 8.0 | 0.00 | 0.00 | 0.00 | 83 | 1009.1 |
| 20260510073737 | 21 | 124 | 4.8 | 8.0 | 0.00 | 0.00 | 0.00 | 83 | 1009.1 |
| 20260510073227 | 21 | 130 | 4.8 | 8.0 | 0.00 | 0.00 | 0.00 | 83 | 1009.1 |
| 20260510072721 | 21 | 128 | 4.8 | 6.4 | 0.00 | 0.00 | 0.00 | 83 | 1009.1 |
| 20260510072213 | 21 | 130 | 4.8 | 8.0 | 0.00 | 0.00 | 0.00 | 83 | 1009.1 |
| 20260510071707 | 21 | 134 | 4.8 | 8.0 | 0.00 | 0.00 | 0.00 | 83 | 1009.1 |
| 20260510071152 | 21 | 139 | 4.8 | 8.0 | 0.00 | 0.00 | 0.00 | 83 | 1009.1 |
| 20260510070650 | 21 | 145 | 4.8 | 8.0 | 0.00 | 0.00 | 0.00 | 83 | 1009.1 |
| 20260510070151 | 22 | 151 | 6.4 | 8.0 | 0.00 | 0.00 | 0.00 | 83 | 1009.1 |
| 20260510065649 | 22 | 148 | 6.4 | 11.3 | 0.00 | 0.00 | 0.00 | 83 | 1009.1 |
| 20260510065146 | 22 | 159 | 6.4 | 11.3 | 0.00 | 0.00 | 0.00 | 83 | 1009.1 |
| 20260510064643 | 22 | 157 | 6.4 | 11.3 | 0.00 | 0.00 | 0.00 | 83 | 1009.1 |
| 20260510064143 | 22 | 144 | 6.4 | 11.3 | 0.00 | 0.00 | 0.00 | 82 | 1009.4 |
| 20260510063642 | 22 | 128 | 8.0 | 11.3 | 0.00 | 0.00 | 0.00 | 82 | 1009.4 |
| 20260510063143 | 22 | 115 | 8.0 | 11.3 | 0.00 | 0.00 | 0.00 | 82 | 1009.4 |
| 20260510062643 | 22 | 110 | 8.0 | 11.3 | 0.00 | 0.00 | 0.00 | 82 | 1009.7 |
| 20260510062142 | 22 | 127 | 8.0 | 11.3 | 0.00 | 0.00 | 0.00 | 82 | 1009.7 |
| 20260510061643 | 22 | 90 | 6.4 | 11.3 | 0.00 | 0.00 | 0.00 | 82 | 1009.7 |
| 20260510061143 | 22 | 114 | 8.0 | 11.3 | 0.00 | 0.00 | 0.00 | 82 | 1009.8 |
| 20260510060629 | 22 | 85 | 8.0 | 12.9 | 0.00 | 0.00 | 0.00 | 82 | 1009.8 |
| 20260510060123 | 22 | 90 | 6.4 | 14.5 | 0.00 | 0.00 | 0.00 | 81 | 1009.8 |
| 20260510055613 | 22 | 78 | 6.4 | 14.5 | 0.00 | 0.00 | 0.00 | 81 | 1009.8 |
| 20260510055326 | 22 | 85 | 8.0 | 14.5 | 0.00 | 0.00 | 0.00 | 81 | 1009.8 |
| 20260510054101 | 22 | 95 | 9.7 | 14.5 | 0.00 | 0.00 | 0.00 | 80 | 1009.8 |
| 20260510053558 | 22 | 79 | 8.0 | 14.5 | 0.00 | 0.00 | 0.00 | 80 | 1009.8 |
| 20260510053321 | 22 | 78 | 6.4 | 11.3 | 0.00 | 0.00 | 0.00 | 80 | 1009.8 |
| 20260510052556 | 22 | 74 | 6.4 | 11.3 | 0.00 | 0.00 | 0.00 | 80 | 1009.7 |
| 20260510052055 | 22 | 60 | 6.4 | 11.3 | 0.00 | 0.00 | 0.00 | 79 | 1009.7 |
| 20260510051555 | 22 | 74 | 6.4 | 11.3 | 0.00 | 0.00 | 0.00 | 79 | 1009.7 |
| 20260510051055 | 22 | 73 | 4.8 | 9.7 | 0.00 | 0.00 | 0.00 | 79 | 1009.3 |
| 20260510050557 | 22 | 85 | 4.8 | 9.7 | 0.00 | 0.00 | 0.00 | 79 | 1009.3 |
| 20260510050055 | 22 | 101 | 6.4 | 9.7 | 0.00 | 0.00 | 0.00 | 79 | 1009.3 |
| 20260510045557 | 22 | 95 | 4.8 | 9.7 | 0.00 | 0.00 | 0.00 | 79 | 1009.2 |
| 20260510045054 | 22 | 118 | 4.8 | 9.7 | 0.00 | 0.00 | 0.00 | 78 | 1009.2 |
| 20260510044554 | 22 | 124 | 6.4 | 9.7 | 0.00 | 0.00 | 0.00 | 78 | 1009.2 |
| 20260510044053 | 22 | 117 | 8.0 | 14.5 | 0.00 | 0.00 | 0.00 | 78 | 1009.3 |
| 20260510043553 | 23 | 114 | 8.0 | 14.5 | 0.00 | 0.00 | 0.00 | 78 | 1009.3 |
| 20260510043049 | 23 | 111 | 8.0 | 14.5 | 0.00 | 0.00 | 0.00 | 78 | 1009.3 |
| 20260510042550 | 23 | 103 | 8.0 | 14.5 | 0.00 | 0.00 | 0.00 | 77 | 1009.3 |
| 20260510042048 | 23 | 90 | 8.0 | 12.9 | 0.00 | 0.00 | 0.00 | 77 | 1009.3 |
| 20260510041815 | 23 | 101 | 6.4 | 12.9 | 0.00 | 0.00 | 0.00 | 77 | 1009.3 |
| 20260510041117 | 23 | 66 | 4.8 | 11.3 | 0.00 | 0.00 | 0.00 | 77 | 1008.8 |
| 20260510040548 | 23 | 100 | 4.8 | 14.5 | 0.00 | 0.00 | 0.00 | 76 | 1008.8 |
| 20260510040038 | 23 | 110 | 6.4 | 14.5 | 0.00 | 0.00 | 0.00 | 76 | 1008.8 |
| 20260510035532 | 23 | 128 | 8.0 | 14.5 | 0.00 | 0.00 | 0.00 | 76 | 1008.1 |
| 20260510035022 | 23 | 160 | 8.0 | 14.5 | 0.00 | 0.00 | 0.00 | 76 | 1008.1 |
| 20260510034511 | 23 | 90 | 6.4 | 14.5 | 0.00 | 0.00 | 0.00 | 76 | 1008.1 |
| 20260510034002 | 23 | 165 | 6.4 | 12.9 | 0.00 | 0.00 | 0.00 | 75 | 1008.2 |
| 20260510033455 | 23 | 90 | 6.4 | 14.5 | 0.00 | 0.00 | 0.00 | 75 | 1008.2 |
| 20260510032941 | 23 | 166 | 6.4 | 14.5 | 0.00 | 0.00 | 0.00 | 75 | 1007.9 |
| 20260510032436 | 23 | 171 | 9.7 | 14.5 | 0.00 | 0.00 | 0.00 | 74 | 1007.9 |
| 20260510031925 | 23 | 168 | 11.3 | 14.5 | 0.00 | 0.00 | 0.00 | 74 | 1007.9 |
| 20260510031415 | 23 | 90 | 11.3 | 14.5 | 0.00 | 0.00 | 0.00 | 74 | 1007.9 |
| 20260510031138 | 24 | 164 | 11.3 | 14.5 | 0.00 | 0.00 | 0.00 | 74 | 1007.9 |
| 20260510030352 | 24 | 156 | 9.7 | 14.5 | 0.00 | 0.00 | 0.00 | 73 | 1007.9 |
| 20260510025842 | 24 | 154 | 8.0 | 14.5 | 0.00 | 0.00 | 0.00 | 73 | 1007.7 |
| 20260510025336 | 24 | 134 | 6.4 | 11.3 | 0.00 | 0.00 | 0.00 | 73 | 1007.7 |
| 20260510024825 | 25 | 141 | 6.4 | 11.3 | 0.00 | 0.00 | 0.00 | 72 | 1007.7 |
| 20260510024316 | 25 | 126 | 6.4 | 9.7 | 0.00 | 0.00 | 0.00 | 72 | 1007.7 |
| 20260510023303 | 25 | 122 | 8.0 | 11.3 | 0.00 | 0.00 | 0.00 | 72 | 1007.7 |
| 20260510022754 | 25 | 143 | 8.0 | 11.3 | 0.00 | 0.00 | 0.00 | 72 | 1007.5 |
| 20260510022240 | 25 | 157 | 4.8 | 11.3 | 0.00 | 0.00 | 0.00 | 71 | 1007.5 |
| 20260510021729 | 26 | 125 | 4.8 | 8.0 | 0.00 | 0.00 | 0.00 | 71 | 1007.5 |
| 20260510021218 | 26 | 103 | 4.8 | 8.0 | 0.00 | 0.00 | 0.00 | 71 | 1007.3 |
| 20260510020708 | 26 | 90 | 4.8 | 8.0 | 0.00 | 0.00 | 0.00 | 71 | 1007.3 |
| 20260510015643 | 26 | 95 | 4.8 | 8.0 | 0.00 | 0.00 | 0.00 | 70 | 1006.8 |
| 20260510015130 | 26 | 90 | 4.8 | 8.0 | 0.00 | 0.00 | 0.00 | 70 | 1006.8 |
| 20260510014618 | 26 | 162 | 6.4 | 24.1 | 0.00 | 0.00 | 0.00 | 70 | 1006.8 |
| 20260510014119 | 26 | 163 | 9.7 | 24.1 | 0.00 | 0.00 | 0.00 | 70 | 1006.1 |
| 20260510013615 | 27 | 165 | 11.3 | 24.1 | 0.00 | 0.00 | 0.00 | 69 | 1006.1 |
| 20260510013119 | 27 | 90 | 12.9 | 24.1 | 0.00 | 0.00 | 0.00 | 69 | 1006.1 |
| 20260510012617 | 27 | 90 | 12.9 | 22.5 | 0.00 | 0.00 | 0.00 | 69 | 1005.8 |
| 20260510012119 | 27 | 168 | 14.5 | 22.5 | 0.00 | 0.00 | 0.00 | 68 | 1005.8 |
| 20260510011616 | 27 | 195 | 14.5 | 25.7 | 0.00 | 0.00 | 0.00 | 68 | 1005.8 |
| 20260510011120 | 28 | 90 | 14.5 | 25.7 | 0.00 | 0.00 | 0.00 | 68 | 1005.9 |
| 20260510010615 | 28 | 90 | 12.9 | 19.3 | 0.00 | 0.00 | 0.00 | 67 | 1005.9 |
| 20260510010118 | 28 | 151 | 12.9 | 19.3 | 0.00 | 0.00 | 0.00 | 67 | 1005.9 |
| 20260510005613 | 29 | 163 | 12.9 | 19.3 | 0.00 | 0.00 | 0.00 | 66 | 1006.1 |
| 20260510005114 | 29 | 160 | 12.9 | 19.3 | 0.00 | 0.00 | 0.00 | 66 | 1006.1 |
| 20260510004609 | 30 | 166 | 11.3 | 17.7 | 0.00 | 0.00 | 0.00 | 66 | 1006.1 |
| 20260510004111 | 30 | 162 | 9.7 | 16.1 | 0.00 | 0.00 | 0.00 | 65 | 1006.1 |
| 20260510003609 | 30 | 170 | 9.7 | 16.1 | 0.00 | 0.00 | 0.00 | 65 | 1006.1 |
| 20260510003112 | 30 | 163 | 9.7 | 16.1 | 0.00 | 0.00 | 0.00 | 65 | 1006.1 |
| 20260510002609 | 30 | 159 | 11.3 | 17.7 | 0.00 | 0.00 | 0.00 | 65 | 1006.1 |
| 20260510002111 | 30 | 168 | 11.3 | 19.3 | 0.00 | 0.00 | 0.00 | 64 | 1006.1 |
| 20260510001609 | 31 | 90 | 11.3 | 19.3 | 0.00 | 0.00 | 0.00 | 64 | 1006.1 |
| 20260510001059 | 31 | 161 | 12.9 | 20.9 | 0.00 | 0.00 | 0.00 | 64 | 1005.9 |
| 20260510000550 | 31 | 161 | 12.9 | 20.9 | 0.00 | 0.00 | 0.00 | 64 | 1005.9 |
| 20260510000044 | 31 | 168 | 14.5 | 20.9 | 0.00 | 0.00 | 0.00 | 64 | 1005.9 |
| 20260509235743 | 31 | 161 | 12.9 | 19.3 | 0.00 | 0.00 | 0.00 | 63 | 1006.0 |
| 20260509235019 | 31 | 155 | 12.9 | 22.5 | 0.00 | 0.00 | 0.00 | 63 | 1006.0 |
| 20260509234517 | 31 | 168 | 12.9 | 22.5 | 0.00 | 0.00 | 0.00 | 63 | 1006.0 |
| 20260509234017 | 32 | 156 | 12.9 | 20.9 | 0.00 | 0.00 | 0.00 | 63 | 1006.0 |
| 20260509233018 | 32 | 139 | 12.9 | 20.9 | 0.00 | 0.00 | 0.00 | 63 | 1006.0 |
| 20260509232517 | 32 | 155 | 12.9 | 20.9 | 0.00 | 0.00 | 0.00 | 63 | 1005.7 |
| 20260509232023 | 32 | 139 | 12.9 | 20.9 | 0.00 | 0.00 | 0.00 | 64 | 1005.7 |
| 20260509231519 | 33 | 165 | 11.3 | 20.9 | 0.00 | 0.00 | 0.00 | 64 | 1005.7 |
| 20260509231243 | 33 | 169 | 9.7 | 17.7 | 0.00 | 0.00 | 0.00 | 64 | 1005.6 |
| 20260509230519 | 33 | 164 | 6.4 | 17.7 | 0.00 | 0.00 | 0.00 | 64 | 1005.6 |
| 20260509230017 | 33 | 174 | 4.8 | 14.5 | 0.00 | 0.00 | 0.00 | 64 | 1005.6 |
| 20260509225511 | 33 | 151 | 6.4 | 14.5 | 0.00 | 0.00 | 0.00 | 64 | 1005.6 |
| 20260509225005 | 33 | 169 | 6.4 | 14.5 | 0.00 | 0.00 | 0.00 | 65 | 1005.6 |
| 20260509224714 | 33 | 90 | 4.8 | 14.5 | 0.00 | 0.00 | 0.00 | 65 | 1005.6 |
| 20260509223949 | 33 | 151 | 3.2 | 12.9 | 0.00 | 0.00 | 0.00 | 66 | 1005.6 |
| 20260509223450 | 33 | 136 | 4.8 | 11.3 | 0.00 | 0.00 | 0.00 | 66 | 1005.6 |
| 20260509222949 | 33 | 210 | 4.8 | 11.3 | 0.00 | 0.00 | 0.00 | 66 | 1005.7 |
| 20260509222718 | 33 | 148 | 3.2 | 8.0 | 0.00 | 0.00 | 0.00 | 67 | 1005.7 |
| 20260509221953 | 33 | 139 | 3.2 | 8.0 | 0.00 | 0.00 | 0.00 | 67 | 1005.7 |
| 20260509221454 | 33 | 140 | 3.2 | 8.0 | 0.00 | 0.00 | 0.00 | 67 | 1006.0 |
| 20260509220949 | 33 | 185 | 4.8 | 8.0 | 0.00 | 0.00 | 0.00 | 68 | 1006.0 |
| 20260509220451 | 33 | 206 | 4.8 | 8.0 | 0.00 | 0.00 | 0.00 | 68 | 1006.0 |
| 20260509215949 | 32 | 201 | 4.8 | 8.0 | 0.00 | 0.00 | 0.00 | 68 | 1006.1 |
| 20260509215454 | 32 | 206 | 3.2 | 4.8 | 0.00 | 0.00 | 0.00 | 69 | 1006.1 |
| 20260509214950 | 32 | 226 | 3.2 | 8.0 | 0.00 | 0.00 | 0.00 | 69 | 1006.1 |
| 20260509214713 | 32 | 230 | 4.8 | 8.0 | 0.00 | 0.00 | 0.00 | 69 | 1006.1 |
| 20260509213948 | 32 | 240 | 4.8 | 8.0 | 0.00 | 0.00 | 0.00 | 70 | 1006.1 |
| 20260509213447 | 32 | 210 | 4.8 | 8.0 | 0.00 | 0.00 | 0.00 | 70 | 1006.1 |
| 20260509212949 | 32 | 214 | 3.2 | 6.4 | 0.00 | 0.00 | 0.00 | 70 | 1006.4 |
| 20260509212448 | 32 | 220 | 1.6 | 4.8 | 0.00 | 0.00 | 0.00 | 71 | 1006.4 |
| 20260509212209 | 32 | 109 | 1.6 | 8.0 | 0.00 | 0.00 | 0.00 | 71 | 1006.4 |
| 20260509211448 | 32 | 181 | 1.6 | 8.0 | 0.00 | 0.00 | 0.00 | 72 | 1006.6 |
| 20260509210936 | 32 | 180 | 3.2 | 9.7 | 0.00 | 0.00 | 0.00 | 72 | 1006.6 |
| 20260509210423 | 32 | 210 | 6.4 | 9.7 | 0.00 | 0.00 | 0.00 | 73 | 1006.6 |
| 20260509205908 | 32 | 205 | 6.4 | 9.7 | 0.00 | 0.00 | 0.00 | 73 | 1006.6 |
| 20260509205356 | 32 | 206 | 8.0 | 12.9 | 0.00 | 0.00 | 0.00 | 74 | 1006.6 |
| 20260509204842 | 32 | 211 | 6.4 | 12.9 | 0.00 | 0.00 | 0.00 | 74 | 1006.6 |
| 20260509204334 | 32 | 166 | 4.8 | 9.7 | 0.00 | 0.00 | 0.00 | 75 | 1006.7 |
| 20260509203824 | 31 | 163 | 4.8 | 9.7 | 0.00 | 0.00 | 0.00 | 75 | 1006.7 |
| 20260509203314 | 31 | 209 | 6.4 | 9.7 | 0.00 | 0.00 | 0.00 | 76 | 1006.7 |
| 20260509202809 | 31 | 207 | 6.4 | 9.7 | 0.00 | 0.00 | 0.00 | 77 | 1006.9 |
| 20260509202306 | 31 | 213 | 6.4 | 9.7 | 0.00 | 0.00 | 0.00 | 77 | 1006.9 |
| 20260509201802 | 31 | 212 | 6.4 | 11.3 | 0.00 | 0.00 | 0.00 | 77 | 1006.9 |
| 20260509201237 | 31 | 216 | 6.4 | 11.3 | 0.00 | 0.00 | 0.00 | 78 | 1007.1 |
| 20260509200732 | 31 | 220 | 4.8 | 8.0 | 0.00 | 0.00 | 0.00 | 78 | 1007.1 |
| 20260509200456 | 31 | 216 | 4.8 | 9.7 | 0.00 | 0.00 | 0.00 | 78 | 1007.1 |
| 20260509195712 | 31 | 250 | 4.8 | 9.7 | 0.00 | 0.00 | 0.00 | 79 | 1007.2 |
| 20260509195205 | 31 | 296 | 3.2 | 8.0 | 0.00 | 0.00 | 0.00 | 79 | 1007.2 |
| 20260509194656 | 31 | 90 | 1.6 | 6.4 | 0.00 | 0.00 | 0.00 | 80 | 1007.2 |
| 20260509194151 | 30 | 101 | 3.2 | 8.0 | 0.00 | 0.00 | 0.00 | 80 | 1007.4 |
| 20260509193640 | 30 | 178 | 3.2 | 8.0 | 0.00 | 0.00 | 0.00 | 81 | 1007.4 |
| 20260509193134 | 30 | 203 | 3.2 | 8.0 | 0.00 | 0.00 | 0.00 | 81 | 1007.4 |
| 20260509192627 | 30 | 205 | 3.2 | 8.0 | 0.00 | 0.00 | 0.00 | 81 | 1007.6 |
| 20260509192128 | 29 | 39 | 3.2 | 8.0 | 0.00 | 0.00 | 0.00 | 82 | 1007.6 |
| 20260509191857 | 29 | 39 | 4.8 | 8.0 | 0.00 | 0.00 | 0.00 | 82 | 1007.6 |
| 20260509191127 | 29 | 49 | 4.8 | 11.3 | 0.00 | 0.00 | 0.00 | 82 | 1007.7 |
| 20260509190628 | 28 | 26 | 4.8 | 11.3 | 0.00 | 0.00 | 0.00 | 82 | 1007.7 |
| 20260509190128 | 28 | 24 | 4.8 | 11.3 | 0.00 | 0.00 | 0.00 | 83 | 1007.7 |
| 20260509185625 | 28 | 19 | 6.4 | 11.3 | 0.00 | 0.00 | 0.00 | 83 | 1007.7 |
| 20260509185125 | 28 | 343 | 6.4 | 12.9 | 0.00 | 0.00 | 0.00 | 83 | 1007.7 |
| 20260509184852 | 28 | 348 | 6.4 | 12.9 | 0.00 | 0.00 | 0.00 | 84 | 1007.7 |
| 20260509184124 | 28 | 349 | 4.8 | 11.3 | 0.00 | 0.00 | 0.00 | 84 | 1007.8 |
| 20260509183624 | 28 | 29 | 4.8 | 9.7 | 0.00 | 0.00 | 0.00 | 84 | 1007.8 |
| 20260509183124 | 28 | 28 | 6.4 | 9.7 | 0.00 | 0.00 | 0.00 | 84 | 1007.8 |
| 20260509182624 | 28 | 36 | 6.4 | 11.3 | 0.00 | 0.00 | 0.00 | 85 | 1008.0 |
| 20260509182122 | 28 | 9 | 6.4 | 11.3 | 0.00 | 0.00 | 0.00 | 85 | 1008.0 |
| 20260509181605 | 28 | 311 | 6.4 | 11.3 | 0.00 | 0.00 | 0.00 | 85 | 1008.0 |
| 20260509181057 | 27 | 354 | 6.4 | 11.3 | 0.00 | 0.00 | 0.00 | 85 | 1008.2 |
| 20260509180551 | 27 | 8 | 6.4 | 11.3 | 0.00 | 0.00 | 0.00 | 86 | 1008.2 |
| 20260509180058 | 27 | 5 | 6.4 | 11.3 | 0.00 | 0.00 | 0.00 | 86 | 1008.2 |
| 20260509175536 | 27 | 342 | 6.4 | 11.3 | 0.00 | 0.00 | 0.00 | 86 | 1008.4 |
| 20260509175306 | 27 | 0 | 6.4 | 11.3 | 0.00 | 0.00 | 0.00 | 86 | 1008.4 |
| 20260509174538 | 27 | 39 | 4.8 | 9.7 | 0.00 | 0.00 | 0.00 | 87 | 1008.4 |
| 20260509174255 | 26 | 34 | 3.2 | 8.0 | 0.00 | 0.00 | 0.00 | 87 | 1008.7 |
| 20260509173533 | 26 | 344 | 3.2 | 8.0 | 0.00 | 0.00 | 0.00 | 87 | 1008.7 |
| 20260509173037 | 26 | 335 | 4.8 | 12.9 | 0.00 | 0.00 | 0.00 | 87 | 1008.7 |
| 20260509172529 | 26 | 7 | 6.4 | 12.9 | 0.00 | 0.00 | 0.00 | 88 | 1008.7 |
| 20260509172301 | 26 | 21 | 8.0 | 12.9 | 0.00 | 0.00 | 0.00 | 88 | 1008.7 |
| 20260509171753 | 26 | 346 | 9.7 | 12.9 | 0.00 | 0.00 | 0.00 | 88 | 1008.7 |
| 20260509171034 | 26 | 340 | 9.7 | 11.3 | 0.00 | 0.00 | 0.00 | 88 | 1008.7 |
| 20260509170236 | 26 | 340 | 8.0 | 11.3 | 0.00 | 0.00 | 0.00 | 89 | 1008.7 |
| 20260509165608 | 26 | 299 | 9.7 | 16.1 | 0.00 | 0.00 | 0.00 | 89 | 1008.3 |
| 20260509165108 | 25 | 332 | 9.7 | 16.1 | 0.00 | 0.00 | 0.00 | 89 | 1008.3 |
| 20260509164607 | 25 | 357 | 8.0 | 16.1 | 0.00 | 0.00 | 0.00 | 89 | 1008.3 |
| 20260509164108 | 25 | 13 | 9.7 | 16.1 | 0.00 | 0.00 | 0.00 | 89 | 1008.7 |
| 20260509163823 | 25 | 14 | 9.7 | 16.1 | 0.00 | 0.00 | 0.00 | 89 | 1008.7 |
| 20260509163107 | 25 | 9 | 8.0 | 12.9 | 0.00 | 0.00 | 0.00 | 89 | 1008.7 |
| 20260509162607 | 25 | 358 | 8.0 | 14.5 | 0.00 | 0.00 | 0.00 | 89 | 1008.7 |
| 20260509162053 | 25 | 29 | 8.0 | 14.5 | 0.00 | 0.00 | 0.00 | 90 | 1008.7 |
| 20260509161537 | 25 | 3 | 8.0 | 12.9 | 0.00 | 0.00 | 0.00 | 90 | 1008.7 |
| 20260509161029 | 24 | 6 | 6.4 | 12.9 | 0.00 | 0.00 | 0.00 | 90 | 1008.7 |
| 20260509160524 | 24 | 357 | 6.4 | 9.7 | 0.00 | 0.00 | 0.00 | 90 | 1008.7 |
| 20260509160227 | 24 | 340 | 3.2 | 9.7 | 0.00 | 0.00 | 0.00 | 90 | 1008.7 |
| 20260509155503 | 25 | 90 | 1.6 | 6.4 | 0.00 | 0.00 | 0.00 | 90 | 1008.7 |
| 20260509155222 | 25 | 43 | 1.6 | 4.8 | 0.00 | 0.00 | 0.00 | 90 | 1008.7 |
| 20260509154715 | 25 | 43 | 0.0 | 4.8 | 0.00 | 0.00 | 0.00 | 90 | 1009.0 |
| 20260509154207 | 25 | 118 | 0.0 | 0.0 | 0.00 | 0.00 | 0.00 | 90 | 1009.0 |
| 20260509153423 | 25 | 118 | 0.0 | 9.7 | 0.00 | 0.00 | 0.00 | 90 | 1009.0 |
| 20260509153154 | 24 | 118 | 3.2 | 9.7 | 0.00 | 0.00 | 0.00 | 90 | 1008.3 |
| 20260509152412 | 24 | 118 | 4.8 | 9.7 | 0.00 | 0.00 | 0.00 | 90 | 1008.3 |
| 20260509151905 | 24 | 123 | 4.8 | 9.7 | 0.00 | 0.00 | 0.00 | 90 | 1008.3 |
| 20260509151403 | 24 | 141 | 4.8 | 9.7 | 0.00 | 0.00 | 0.00 | 90 | 1008.3 |
| 20260509151122 | 24 | 119 | 3.2 | 8.0 | 0.00 | 0.00 | 0.00 | 90 | 1008.3 |
| 20260509150402 | 24 | 144 | 3.2 | 8.0 | 0.00 | 0.00 | 0.00 | 90 | 1008.3 |
| 20260509150127 | 24 | 145 | 3.2 | 8.0 | 0.00 | 0.00 | 0.00 | 90 | 1008.3 |
| 20260509145618 | 24 | 146 | 4.8 | 11.3 | 0.00 | 0.00 | 0.00 | 90 | 1008.3 |
| 20260509144858 | 24 | 153 | 4.8 | 11.3 | 0.00 | 0.00 | 0.00 | 90 | 1008.3 |
| 20260509144357 | 24 | 172 | 4.8 | 11.3 | 0.00 | 0.00 | 0.00 | 90 | 1008.7 |
| 20260509144115 | 24 | 189 | 6.4 | 11.3 | 0.00 | 0.00 | 0.00 | 90 | 1008.7 |
| 20260509143357 | 24 | 209 | 6.4 | 11.3 | 0.00 | 0.00 | 0.00 | 90 | 1008.7 |
| 20260509142856 | 24 | 192 | 6.4 | 11.3 | 0.00 | 0.00 | 0.00 | 90 | 1008.3 |
| 20260509142358 | 23 | 215 | 6.4 | 11.3 | 0.00 | 0.00 | 0.00 | 90 | 1008.3 |
| 20260509141857 | 23 | 218 | 6.4 | 11.3 | 0.00 | 0.00 | 0.00 | 90 | 1008.3 |
| 20260509141610 | 23 | 223 | 4.8 | 12.9 | 0.00 | 0.00 | 0.00 | 90 | 1007.8 |
| 20260509140833 | 23 | 238 | 8.0 | 12.9 | 0.00 | 0.00 | 0.00 | 90 | 1007.8 |
| 20260509140322 | 23 | 243 | 8.0 | 14.5 | 0.00 | 0.00 | 0.00 | 90 | 1007.8 |
| 20260509135817 | 23 | 249 | 4.8 | 14.5 | 0.00 | 0.00 | 0.00 | 90 | 1007.9 |
| 20260509135311 | 23 | 263 | 3.2 | 9.7 | 0.00 | 0.00 | 0.00 | 90 | 1007.9 |
| 20260509134802 | 23 | 351 | 6.4 | 11.3 | 0.00 | 0.00 | 0.00 | 90 | 1007.9 |
| 20260509134518 | 23 | 0 | 8.0 | 14.5 | 0.00 | 0.00 | 0.00 | 90 | 1008.1 |
| 20260509133740 | 23 | 354 | 9.7 | 20.9 | 0.00 | 0.00 | 0.00 | 90 | 1008.1 |
| 20260509133231 | 23 | 11 | 12.9 | 20.9 | 0.00 | 0.00 | 0.00 | 90 | 1008.1 |
| 20260509132732 | 23 | 343 | 14.5 | 20.9 | 0.00 | 0.00 | 0.00 | 90 | 1008.2 |
| 20260509132450 | 23 | 342 | 14.5 | 20.9 | 0.00 | 0.00 | 0.00 | 90 | 1008.2 |
| 20260509131957 | 23 | 342 | 12.9 | 33.8 | 0.00 | 0.00 | 0.00 | 90 | 1008.2 |
| 20260509131232 | 23 | 340 | 16.1 | 33.8 | 0.00 | 0.00 | 0.00 | 90 | 1007.7 |
| 20260509130955 | 23 | 1 | 17.7 | 33.8 | 0.00 | 0.00 | 0.00 | 91 | 1007.7 |
| 20260509130229 | 23 | 347 | 12.9 | 33.8 | 0.00 | 0.00 | 0.00 | 90 | 1007.7 |
| 20260509125730 | 23 | 330 | 14.5 | 30.6 | 0.00 | 0.00 | 0.00 | 91 | 1007.6 |
| 20260509125229 | 23 | 338 | 14.5 | 40.2 | 0.00 | 0.00 | 0.00 | 91 | 1007.6 |
| 20260509124728 | 23 | 332 | 17.7 | 40.2 | 0.00 | 0.00 | 0.00 | 90 | 1007.6 |
| 20260509124228 | 23 | 95 | 29.0 | 40.2 | 0.00 | 0.00 | 0.00 | 91 | 1006.6 |
| 20260509123941 | 23 | 116 | 30.6 | 43.5 | 0.00 | 0.00 | 0.00 | 90 | 1006.6 |
| 20260509123217 | 23 | 109 | 32.2 | 43.5 | 0.00 | 0.00 | 0.00 | 91 | 1006.6 |
| 20260509122718 | 23 | 90 | 30.6 | 43.5 | 0.00 | 0.00 | 0.00 | 91 | 1007.2 |
| 20260509122436 | 23 | 105 | 24.1 | 38.6 | 0.00 | 0.00 | 0.00 | 90 | 1007.2 |
| 20260509121938 | 23 | 70 | 19.3 | 32.2 | 0.00 | 0.00 | 0.00 | 90 | 1007.2 |
| 20260509121218 | 23 | 104 | 16.1 | 25.7 | 0.00 | 0.00 | 0.00 | 90 | 1008.2 |
| 20260509120717 | 23 | 125 | 12.9 | 24.1 | 0.00 | 0.00 | 0.00 | 90 | 1008.2 |
| 20260509120441 | 23 | 85 | 9.7 | 24.1 | 0.00 | 0.00 | 0.00 | 90 | 1008.2 |
| 20260509115937 | 23 | 67 | 11.3 | 24.1 | 0.00 | 0.00 | 0.00 | 90 | 1008.4 |
| 20260509115210 | 23 | 118 | 14.5 | 25.7 | 0.00 | 0.00 | 0.00 | 90 | 1008.4 |
| 20260509114709 | 23 | 149 | 12.9 | 25.7 | 0.00 | 0.00 | 0.00 | 90 | 1008.4 |
| 20260509114426 | 23 | 203 | 11.3 | 22.5 | 0.00 | 0.00 | 0.00 | 90 | 1008.7 |
| 20260509113710 | 23 | 209 | 12.9 | 24.1 | 0.00 | 0.00 | 0.00 | 90 | 1008.7 |
| 20260509113430 | 23 | 90 | 11.3 | 24.1 | 0.00 | 0.00 | 0.00 | 90 | 1008.7 |
| 20260509112708 | 23 | 176 | 8.0 | 17.7 | 0.00 | 0.00 | 0.00 | 90 | 1008.6 |
| 20260509112208 | 23 | 179 | 6.4 | 14.5 | 0.00 | 0.00 | 0.00 | 90 | 1008.6 |
| 20260509111708 | 23 | 132 | 4.8 | 14.5 | 0.00 | 0.00 | 0.00 | 90 | 1008.6 |
| 20260509111210 | 23 | 131 | 8.0 | 14.5 | 0.00 | 0.00 | 0.00 | 90 | 1008.2 |
| 20260509110708 | 23 | 153 | 9.7 | 14.5 | 0.00 | 0.00 | 0.00 | 90 | 1008.2 |
| 20260509110210 | 23 | 168 | 8.0 | 12.9 | 0.00 | 0.00 | 0.00 | 90 | 1008.2 |
| 20260509105920 | 23 | 161 | 4.8 | 11.3 | 0.00 | 0.00 | 0.00 | 90 | 1008.2 |